DELTA 1 DEB

Satellite information

Favourite Embed

Satellite Type and Status

DEBRISIN ORBIT

Key statistics

Satellite DELTA 1 DEB at a glance.

Uptime

17451

Days in orbit

Revolutions

≈ 14.4

Per day

Orbit

SSO

Sun Synchronous Orbit

Inclination

98.6

Latest

Satellite identification and parameters

Extended collection of information and parameters for DELTA 1 DEB.

Object identification

Identified? True

Debris? True

Object name: DELTA 1 DEB

International designator: 1978-026HA

Object number (NORAD): 17768

Object ID (CCSDS): 17768

Country: UNITED STATES OF AMERICA (US)

Current information (Y/N): Y

RCS size: SMALL

Orbital parameters

Period: 99.725 minutes

Inclination: 98.6122 deg

SMA: 7123.522 km

Apoapsis: 798.681 km

Periapsis: 692.092 km

RAAN: 357.0702 deg

Eccentricy: 0.00748147

Argument of periapsis: 297.5591 deg

Mean anomaly: 73.2394 deg

Mean motion: 14.43978149 rev/day

Mean motion (dot): 0.00001825 rev/day2

B* drag term: 0.0005300693 1/REarth

Two-line elements (TLE)

Creation date: Dec. 12, 2025, 10:14 a.m.

Reference frame: TEME

Reference center: EARTH

Epoch: Dec. 12, 2025, 7:32 a.m. UTC

TLE line 0: 0 DELTA 1 DEB

TLE line 1: 1 17768U 78026HA 25346.31439053 .00001825 00000-0 53007-3 0 9994

TLE line 2: 2 17768 98.6122 357.0702 0074815 297.5591 73.2394 14.43978149295370

Live tracking on map

Real-time ground track for satellite DELTA 1 DEB.

In-orbit conjunctions

A list of the most updated potential collisions computed for object DELTA 1 DEB.

Target Orbit TCA Probability of collision Miss distance Type
COSMOS 1275 DEB LEO 2025-07-12 04:48:49 0.0001031576 187.0 (m) DEBRIS
PSLV DEB SSO 2025-06-13 04:33:50 0.0001047376 501.0 (m) DEBRIS
NOAA 16 DEB SSO 2024-12-19 20:00:56 0.0003203698 103.0 (m) DEBRIS
THORAD AGENA D DEB SSO 2024-11-02 08:05:40 0.0001982508 80.0 (m) DEBRIS
COSMOS 1275 DEB LEO 2024-10-17 12:02:05 0.0002427433 125.0 (m) DEBRIS

Associated space launch

Earth observation satellite

DELTA 1 DEB was lifted into orbit during the mission ‘Delta 2910 | Landsat 3’, on board a Delta 2910 space rocket.

The launch took place on March 5, 1978, 5:54 p.m. from Space Launch Complex 2W.

For more information about the launch, click the button.

Launch to space Delta 2910 | Landsat 3
Delta 2910 | Landsat 3

Agency: N/A

Status: Launch Successful

Launch date: March 5, 1978, 5:54 p.m. UTC

Rocket: Delta 2910

Launch pad: Space Launch Complex 2W

Location: Vandenberg SFB, CA, USA

...

Latest news about this satellite

There are no fresh news available about this satellite. Check back as we update our databases every day.


Newsletter sign-up

Weekly statistics, charts and insights to help you stay on top of the space industry.